Regional Weather Roundup
Issued by NWS Upton, NY

Current Version | Previous Version | Text Only | Print | Product List | Glossary On
Versions: 1 2 3 4 5 6 7 8 9 10 11 12 13 14 15 16 17 18 19 20 21 22 23 24 25 26 27 28 29 30 31 32 33 34 35 36 37 38 39 40 41 42 43 44 45 46 47 48 49 50
000 ASUS41 KOKX 211605 RWROKX REGIONAL WEATHER ROUNDUP NATIONAL WEATHER SERVICE NEW YORK NY 1200 PM EDT SUN SEP 21 2014 NOTE: "FAIR" INDICATES FEW OR NO CLOUDS BELOW 12,000 FEET WITH NO SIGNIFICANT WEATHER AND/OR OBSTRUCTIONS TO VISIBILITY. NYZ071-072-176-178-NJZ106-104-211700- NEW YORK CITY METRO AREA CITY SKY/WX TMP DP RH WIND PRES REMARKS CENTRAL PARK CLOUDY 72 67 84 CALM 29.84F HAZE LAGUARDIA APRT CLOUDY 72 67 84 NE5 29.80F KENNEDY INTL CLOUDY 76 68 76 SE8 29.81F NEWARK/LIBERTY CLOUDY 72 67 84 N5 29.81F HAZE BRNX BOT. GARD N/A 72 66 83 W7 29.82F TETERBORO CLOUDY 72 66 83 N5 29.81F FOG $$ NYZ177-179-078>081-211700- LONG ISLAND NEW YORK CITY SKY/WX TMP DP RH WIND PRES REMARKS FARMINGDALE CLOUDY 76 69 79 SE9 29.81F ISLIP CLOUDY 76 68 76 SE9 29.81F SHIRLEY CLOUDY 75 70 84 SE9 29.83F WESTHAMPTON PTSUNNY 75 69 81 SE8 29.85F MONTAUK POINT N/A 76 71 85 VRB5 29.86F $$ NYZ052-065-067-211700- HUDSON VALLEY CITY SKY/WX TMP DP RH WIND PRES REMARKS WHITE PLAINS FOG 70 68 93 W3 29.82F VSB 1 NEWBURGH PTSUNNY 70 66 88 CALM 29.85F MONTGOMERY MOSUNNY 74 63 68 SE6 29.82F POUGHKEEPSIE CLOUDY 72 64 76 CALM 29.82F ALBANY PTSUNNY 74 61 63 S18 29.78F $$ NJZ001-105-106-008-010-013-015-019>022-104-211700- NEW JERSEY CITY SKY/WX TMP DP RH WIND PRES REMARKS NEWARK/LIBERTY CLOUDY 72 67 84 N5 29.81F HAZE TETERBORO CLOUDY 72 66 83 N5 29.81F FOG CALDWELL CLOUDY 70 64 81 CALM 29.83F MORRISTOWN CLOUDY 72 68 88 CALM 29.83F SOMERVILLE CLOUDY 72 64 76 CALM 29.81F LINDEN CLOUDY 75 70 84 NW6 29.83F SUSSEX MOSUNNY 76 62 62 SW5 29.82F ANDOVER N/A 73 60 63 SW3 29.83F TRENTON CLOUDY 70 65 84 CALM 29.82F MILLVILLE CLOUDY 72 68 87 N7 29.81F ATLANTIC CITY CLOUDY 75 68 78 E7 29.80F WRIGHTSTOWN CLOUDY 71 68 91 NW2 29.80F TOMS RIVER CLOUDY 72 68 88 CALM 29.81F BELMAR CLOUDY 70 66 88 CALM 29.81F $$ PAZ047>061-062-071-211700- EASTERN PENNSYLVANIA CITY SKY/WX TMP DP RH WIND PRES REMARKS PHILADELPHIA CLOUDY 72 65 78 E5 29.82F ALLENTOWN CLOUDY 66 59 78 CALM 29.84F SCRANTON SUNNY 78 59 51 VRB6 29.80F $$ CTZ002-004>006-009-010-012-RIZ004-006-007-MAZ004-011-015-211700- SOUTHERN NEW ENGLAND IN CT CITY SKY/WX TMP DP RH WIND PRES REMARKS BRADLEY INTL LGT RAIN 72 67 84 CALM 29.84F HARTFORD CLOUDY 75 69 81 S10G18 29.83F DANBURY CLOUDY 70 67 90 CALM 29.84F WTRBRY/OXFORD CLOUDY 73 68 83 S10 29.86F BRIDGEPORT CLOUDY 74 69 85 E6 29.82F MERIDEN CLOUDY 75 68 78 VRB7 29.83F NEW HAVEN CLOUDY 77 69 76 E7 29.83F CHESTER PTSUNNY 73 70 88 S8 29.86F GROTON PTSUNNY 73 70 90 SE13 29.85F WILLIMANTIC PTSUNNY 76 69 79 MISG 29.85F IN RI CITY SKY/WX TMP DP RH WIND PRES REMARKS PROVIDENCE CLOUDY 75 69 81 SE16G23 29.88F BLOCK ISLAND CLOUDY 73 68 83 SE12G20 29.87F WESTERLY CLOUDY 74 69 85 SE7 29.86F IN MA CITY SKY/WX TMP DP RH WIND PRES REMARKS BOSTON PTSUNNY 80 66 62 S14 29.86F WORCESTER PTSUNNY 72 67 84 S15G22 29.88F WESTFIELD CLOUDY 67 65 93 SW3 29.85F FOG PROVINCETOWN MOSUNNY 73 66 78 S17 29.89F NANTUCKET CLOUDY 70 66 87 SE14 29.88F $$ ANZ330-335-338-340-345-350-353-355-211700- COASTAL MARINE OBSERVATIONS STATION/POSITION TIME SKY/WX TEMP WIND PRES VSBY WAVE AIR SEA DIR/SP/G HT/PER (UTC) (F) (DEG/KT/KT) (MB) (MI) (FT/S) NY HARB ENTRANCE 1600 71 71 90/ 6/ 8 1009.9 4/ 7 4S FIRE IS 1600 70 N/A 4/ 6 20S FIRE ISLAND 1600 71 69 90/ 4/ 6 1010.5 4/ 8 23SW MTP 1600 N/A 4/ 7 HUDSON CANYON 1600 72 71 90/ 8/ 10 1009.2 5/ 8 EXECUTION ROCKS 1600 71 70 340/ 4/ 6 N/A WESTERN LI SOUND 1600 70 20/ 4/ 6 N/A 0 CENTRAL LI SOUND 1500 71 71 140/ 4/ 6 N/A 1 EASTERN LI SOUND 1500 70 68 140/ 8/ 10 N/A ROBBINS REEF 1600 71 300/ 4/ 4 1008.3 $$ >>>>>>>>>>>>>>>>>>>>>>>>>>>> KEY <<<<<<<<<<<<<<<<<<<<<<<<<<< > < > SKY/WX - SKY CONDITION/PRESENT WEATHER < > TMP - TEMPERATURE IN FAHRENHEIT < > DP - DEWPOINT IN FAHRENHEIT < > RH - RELATIVE HUMIDITY IN PERCENT < > WIND - DIRECTION AND SPEED IN MPH < > PRES - MEAN SEA LEVEL PRESSURE IN INCHES OF HG < > WCI - WIND CHILL INDEX < > VSB - VISIBILITY IN MILES < > HX - HEAT INDEX < > TC - TEMPERATURE IN CELSIUS < > VRB - VARIABLE WIND DIRECTION < > < >>>>>>>>>>>>>>>>>>>>>>>>>>>> KEY <<<<<<<<<<<<<<<<<<<<<<<<<<<

USA.gov is the U.S. government's official web portal to all federal, state and local government web resources and services.